Flag for U.S.A. Weather past 2 weeks in Wichita, Kansas, U.S.A.

Now
62 °F

Broken clouds.


Feels Like: 62 °F
Forecast: 47 / 67 °F
Wind: 17 mph from Northeast

Location: Wichita Mid-Continent Airport

Current Time: Apr 27, 2015 at 8:03:37 PM

Latest Report: Apr 27, 2015 at 6:53 PM


Visibility: 10 mi

Pressure: 30.03 "Hg

Humidity: 34%

Dew point: 33 °F

Location of WichitaLocation

Historic Weather in Wichita — Graph

°F

Wichita temperature yesterday

Maximum temperature yesterday: 57 °F (at 2:53 PM)
Minimum temperature yesterday: 50 °F (at 5:53 AM)
Average temperature yesterday: 53 °F

Past Weeks' High & Low Weather Summary

 TemperatureHumidityPressure
High79 °F (Apr 16, 3:53 PM)100% (Apr 12, 11:53 PM)30.23 "Hg (Apr 12, 11:53 PM)
Low41 °F (Apr 20, 6:53 AM)20% (Apr 13, 1:53 PM)29.37 "Hg (Apr 25, 2:53 AM)
Average60 °F63%29.89 "Hg
* Reported Apr 12 6:53 PM — Apr 27 6:53 PM, Wichita, Weather by CustomWeather, © 2015

Note: Actual official high and low records may vary slightly from our data, if they occured in-between our weather recording intervals... More about our weather records

Advertising

Wichita weather history for previous 24 hours

 ConditionsComfort  
Time TempWeatherWind HumidityBarometerVisibility
6:53 PM
Mon, Apr 27
62 °FBroken clouds.17 mph34%30.03 "Hg10 mi
5:53 PM63 °FBroken clouds.20 mph34%30.02 "Hg10 mi
4:53 PM64 °FBroken clouds.22 mph34%30.00 "Hg10 mi
3:53 PM62 °FBroken clouds.25 mph37%30.00 "Hg10 mi
2:53 PM62 °FPartly sunny.22 mph34%30.02 "Hg10 mi
1:53 PM61 °FBroken clouds.25 mph35%30.01 "Hg10 mi
12:53 PM58 °FCloudy.23 mph41%30.03 "Hg10 mi
11:53 AM58 °FMostly cloudy.28 mph39%30.02 "Hg10 mi
10:53 AM56 °FMostly cloudy.24 mph46%30.03 "Hg10 mi
9:53 AM54 °FCloudy.28 mph51%30.02 "Hg10 mi
8:53 AM52 °FMostly cloudy.16 mph57%30.02 "Hg10 mi
7:53 AM51 °FCloudy.17 mph56%30.01 "Hg10 mi
6:53 AM51 °FOvercast.15 mph59%29.99 "Hg10 mi
5:53 AM52 °FMostly cloudy.16 mph57%29.98 "Hg10 mi
4:53 AM52 °FOvercast.14 mph59%29.98 "Hg10 mi
3:53 AM53 °FMostly cloudy.10 mph59%29.98 "Hg10 mi
2:53 AM53 °FMostly cloudy.9 mph59%29.98 "Hg10 mi
1:53 AM52 °FOvercast.3 mph66%29.99 "Hg10 mi
12:53 AM53 °FOvercast.13 mph69%29.96 "Hg10 mi
11:53 PM
Sun, Apr 26
53 °FMostly cloudy.9 mph74%29.94 "Hg10 mi
10:53 PM53 °FPartly cloudy.13 mph74%29.94 "Hg10 mi
9:53 PM53 °FPassing clouds.10 mph74%29.94 "Hg10 mi
8:53 PM53 °FScattered clouds.12 mph72%29.89 "Hg10 mi
Weather by CustomWeather, © 2015

See weather overviewHow to use our weather pages